TimeEDT,TemperatureF,Dew PointF,Humidity,Sea Level PressureIn,VisibilityMPH,Wind Direction,Wind SpeedMPH,Gust SpeedMPH,PrecipitationIn,Events,Conditions,WindDirDegrees,DateUTC
12:54 AM,41.0,32.0,70,30.22,10.0,SSW,3.5,-,N/A,,Mostly Cloudy,200,2013-03-30 04:54:00
1:54 AM,39.9,30.9,70,30.22,10.0,Calm,Calm,-,N/A,,Scattered Clouds,0,2013-03-30 05:54:00
2:54 AM,39.9,30.9,70,30.22,10.0,Calm,Calm,-,N/A,,Mostly Cloudy,0,2013-03-30 06:54:00
3:54 AM,39.0,30.9,73,30.21,10.0,Calm,Calm,-,N/A,,Mostly Cloudy,0,2013-03-30 07:54:00
4:54 AM,37.0,30.0,76,30.20,10.0,Calm,Calm,-,N/A,,Scattered Clouds,0,2013-03-30 08:54:00
5:54 AM,36.0,30.0,79,30.21,10.0,Calm,Calm,-,N/A,,Scattered Clouds,0,2013-03-30 09:54:00
6:54 AM,35.1,28.9,78,30.23,10.0,Calm,Calm,-,N/A,,Scattered Clouds,0,2013-03-30 10:54:00
7:54 AM,36.0,30.9,82,30.24,10.0,Calm,Calm,-,N/A,,Mostly Cloudy,0,2013-03-30 11:54:00
8:54 AM,46.9,34.0,61,30.25,10.0,NW,3.5,-,N/A,,Partly Cloudy,310,2013-03-30 12:54:00
9:54 AM,55.0,28.0,35,30.25,10.0,NW,8.1,-,N/A,,Partly Cloudy,310,2013-03-30 13:54:00
10:54 AM,57.9,26.1,30,30.24,10.0,WNW,11.5,-,N/A,,Partly Cloudy,300,2013-03-30 14:54:00
11:54 AM,59.0,24.1,26,30.22,10.0,Variable,4.6,18.4,N/A,,Scattered Clouds,0,2013-03-30 15:54:00
12:54 PM,61.0,24.1,24,30.20,10.0,Variable,6.9,17.3,N/A,,Scattered Clouds,0,2013-03-30 16:54:00
1:54 PM,62.1,24.1,23,30.18,10.0,NW,6.9,-,N/A,,Scattered Clouds,320,2013-03-30 17:54:00
2:54 PM,63.0,25.0,24,30.15,10.0,WNW,10.4,-,N/A,,Scattered Clouds,300,2013-03-30 18:54:00
3:54 PM,63.0,24.1,23,30.14,10.0,WSW,6.9,18.4,N/A,,Scattered Clouds,250,2013-03-30 19:54:00
4:54 PM,63.0,24.1,23,30.13,10.0,WNW,4.6,-,N/A,,Scattered Clouds,300,2013-03-30 20:54:00
5:54 PM,63.0,25.0,24,30.12,10.0,NW,6.9,-,N/A,,Mostly Cloudy,310,2013-03-30 21:54:00
6:54 PM,62.1,24.1,23,30.12,10.0,Calm,Calm,-,N/A,,Mostly Cloudy,0,2013-03-30 22:54:00
7:54 PM,55.0,30.9,40,30.14,10.0,SE,3.5,-,N/A,,Mostly Cloudy,140,2013-03-30 23:54:00
8:54 PM,50.0,30.9,48,30.15,10.0,East,9.2,-,N/A,,Mostly Cloudy,90,2013-03-31 00:54:00
9:54 PM,48.0,30.0,50,30.16,10.0,ESE,8.1,-,N/A,,Mostly Cloudy,120,2013-03-31 01:54:00
10:54 PM,46.9,32.0,56,30.15,10.0,SE,10.4,-,N/A,,Mostly Cloudy,130,2013-03-31 02:54:00
11:54 PM,46.9,32.0,56,30.14,10.0,SE,9.2,-,N/A,,Mostly Cloudy,140,2013-03-31 03:54:00